Time,TemperatureF,DewpointF,PressureIn,WindDirection,WindDirectionDegrees,WindSpeedMPH,WindSpeedGustMPH,Humidity,HourlyPrecipIn,Conditions,Clouds,dailyrainin,SoftwareType,DateUTC
2013-02-02 00:01:00,47.0,42.0,30.23,NW,323,0.0,-999.0,83,-99.99,,,-99.99,,2013-02-02 08:01:00,
2013-02-02 00:11:00,47.0,42.0,30.23,NW,323,0.0,-999.0,83,-99.99,,,-99.99,,2013-02-02 08:11:00,
2013-02-02 00:21:00,46.0,42.0,30.24,NW,323,3.0,-999.0,85,-99.99,,,-99.99,,2013-02-02 08:21:00,
2013-02-02 00:31:00,46.0,42.0,30.24,NW,323,1.0,-999.0,85,-99.99,,,-99.99,,2013-02-02 08:31:00,
2013-02-02 00:41:00,46.0,42.0,30.24,NW,323,1.0,-999.0,85,-99.99,,,-99.99,,2013-02-02 08:41:00,
2013-02-02 00:52:00,46.0,41.0,30.24,NW,323,2.0,-999.0,83,-99.99,,,-99.99,,2013-02-02 08:52:00,
2013-02-02 01:01:00,45.0,40.0,30.24,NW,323,2.0,-999.0,83,-99.99,,,-99.99,,2013-02-02 09:01:00,
2013-02-02 01:11:00,45.0,40.0,30.24,NW,323,2.0,-999.0,83,-99.99,,,-99.99,,2013-02-02 09:11:00,
2013-02-02 01:22:00,45.0,40.0,30.24,NW,323,3.0,-999.0,83,-99.99,,,-99.99,,2013-02-02 09:22:00,
2013-02-02 01:31:00,45.0,40.0,30.24,NW,323,3.0,-999.0,83,-99.99,,,-99.99,,2013-02-02 09:31:00,
2013-02-02 01:41:00,45.0,40.0,30.24,NW,323,3.0,-999.0,83,-99.99,,,-99.99,,2013-02-02 09:41:00,
2013-02-02 01:51:00,45.0,40.0,30.24,NW,323,3.0,-999.0,83,-99.99,,,-99.99,,2013-02-02 09:51:00,
2013-02-02 02:01:00,46.0,40.0,30.25,NW,323,2.0,-999.0,80,-99.99,,,-99.99,,2013-02-02 10:01:00,
2013-02-02 02:11:00,46.0,40.0,30.25,NW,323,2.0,-999.0,80,-99.99,,,-99.99,,2013-02-02 10:11:00,
2013-02-02 02:21:00,46.0,40.0,30.25,NW,323,2.0,-999.0,80,-99.99,,,-99.99,,2013-02-02 10:21:00,
2013-02-02 02:31:00,46.0,40.0,30.25,NW,323,2.0,-999.0,80,-99.99,,,-99.99,,2013-02-02 10:31:00,
2013-02-02 02:41:00,46.0,40.0,30.25,NW,323,2.0,-999.0,80,-99.99,,,-99.99,,2013-02-02 10:41:00,
2013-02-02 02:51:00,45.0,40.0,30.26,NW,323,2.0,-999.0,82,-99.99,,,-99.99,,2013-02-02 10:51:00,
2013-02-02 03:01:00,44.0,39.0,30.26,NW,323,0.0,-999.0,83,-99.99,,,-99.99,,2013-02-02 11:01:00,
2013-02-02 03:11:00,44.0,39.0,30.26,NW,323,0.0,-999.0,83,-99.99,,,-99.99,,2013-02-02 11:11:00,
2013-02-02 03:21:00,44.0,39.0,30.26,NW,323,0.0,-999.0,83,-99.99,,,-99.99,,2013-02-02 11:21:00,
2013-02-02 03:31:00,44.0,39.0,30.26,NW,323,0.0,-999.0,84,-99.99,,,-99.99,,2013-02-02 11:31:00,
2013-02-02 03:41:00,44.0,39.0,30.26,NW,323,0.0,-999.0,84,-99.99,,,-99.99,,2013-02-02 11:41:00,
2013-02-02 03:52:00,44.0,40.0,30.26,NW,323,1.0,-999.0,85,-99.99,,,-99.99,,2013-02-02 11:52:00,
2013-02-02 04:01:00,44.0,40.0,30.26,NW,323,0.0,-999.0,86,-99.99,,,-99.99,,2013-02-02 12:01:00,
2013-02-02 04:11:00,44.0,40.0,30.26,NW,323,0.0,-999.0,86,-99.99,,,-99.99,,2013-02-02 12:11:00,
2013-02-02 04:22:00,43.0,39.0,30.26,NW,323,1.0,-999.0,86,-99.99,,,-99.99,,2013-02-02 12:22:00,
2013-02-02 04:32:00,43.0,39.0,30.26,NW,323,2.0,-999.0,87,-99.99,,,-99.99,,2013-02-02 12:32:00,
2013-02-02 04:42:00,43.0,39.0,30.26,NW,323,2.0,-999.0,87,-99.99,,,-99.99,,2013-02-02 12:42:00,
2013-02-02 04:52:00,43.0,40.0,30.25,NW,323,2.0,-999.0,88,-99.99,,,-99.99,,2013-02-02 12:52:00,
2013-02-02 05:02:00,44.0,41.0,30.25,NW,323,3.0,-999.0,89,-99.99,,,-99.99,,2013-02-02 13:02:00,
2013-02-02 05:11:00,44.0,41.0,30.25,NW,323,3.0,-999.0,89,-99.99,,,-99.99,,2013-02-02 13:11:00,
2013-02-02 05:21:00,44.0,41.0,30.25,NW,323,3.0,-999.0,89,-99.99,,,-99.99,,2013-02-02 13:21:00,
2013-02-02 05:32:00,44.0,41.0,30.25,NW,323,3.0,-999.0,88,-99.99,,,-99.99,,2013-02-02 13:32:00,
2013-02-02 05:42:00,44.0,41.0,30.25,NW,323,3.0,-999.0,88,-99.99,,,-99.99,,2013-02-02 13:42:00,
2013-02-02 05:51:00,44.0,41.0,30.25,NW,323,3.0,-999.0,89,-99.99,,,-99.99,,2013-02-02 13:51:00,
2013-02-02 06:02:00,44.0,41.0,30.25,NW,323,2.0,-999.0,89,-99.99,,,-99.99,,2013-02-02 14:02:00,
2013-02-02 06:11:00,44.0,41.0,30.25,NW,323,2.0,-999.0,89,-99.99,,,-99.99,,2013-02-02 14:11:00,
2013-02-02 06:22:00,44.0,41.0,30.25,NW,323,2.0,-999.0,89,-99.99,,,-99.99,,2013-02-02 14:22:00,
2013-02-02 06:32:00,44.0,41.0,30.25,NW,323,1.0,-999.0,89,-99.99,,,-99.99,,2013-02-02 14:32:00,
2013-02-02 06:42:00,44.0,41.0,30.25,NW,323,1.0,-999.0,89,-99.99,,,-99.99,,2013-02-02 14:42:00,
2013-02-02 06:52:00,44.0,42.0,30.26,NW,323,2.0,-999.0,91,-99.99,,,-99.99,,2013-02-02 14:52:00,
2013-02-02 07:02:00,44.0,42.0,30.25,NW,323,3.0,-999.0,91,-99.99,,,-99.99,,2013-02-02 15:02:00,
2013-02-02 07:11:00,44.0,42.0,30.25,NW,323,3.0,-999.0,91,-99.99,,,-99.99,,2013-02-02 15:11:00,
2013-02-02 07:21:00,44.0,41.0,30.26,NW,323,3.0,-999.0,89,-99.99,,,-99.99,,2013-02-02 15:21:00,
2013-02-02 07:32:00,43.0,40.0,30.27,NW,323,2.0,-999.0,89,-99.99,,,-99.99,,2013-02-02 15:32:00,
2013-02-02 07:41:00,43.0,40.0,30.27,NW,323,2.0,-999.0,89,-99.99,,,-99.99,,2013-02-02 15:41:00,
2013-02-02 07:51:00,43.0,40.0,30.28,NW,323,0.0,-999.0,90,-99.99,,,-99.99,,2013-02-02 15:51:00,
2013-02-02 08:02:00,43.0,40.0,30.28,NW,323,1.0,-999.0,90,-99.99,,,-99.99,,2013-02-02 16:02:00,
2013-02-02 08:11:00,43.0,40.0,30.28,NW,323,1.0,-999.0,90,-99.99,,,-99.99,,2013-02-02 16:11:00,
2013-02-02 08:22:00,44.0,42.0,30.28,NW,323,3.0,-999.0,91,-99.99,,,-99.99,,2013-02-02 16:22:00,
2013-02-02 08:31:00,44.0,41.0,30.29,NW,323,2.0,-999.0,90,-99.99,,,-99.99,,2013-02-02 16:31:00,
2013-02-02 08:42:00,44.0,41.0,30.29,NW,323,2.0,-999.0,90,-99.99,,,-99.99,,2013-02-02 16:42:00,
2013-02-02 08:51:00,45.0,42.0,30.29,NW,323,1.0,-999.0,89,-99.99,,,-99.99,,2013-02-02 16:51:00,
2013-02-02 09:02:00,45.0,41.0,30.29,NW,323,2.0,-999.0,87,-99.99,,,-99.99,,2013-02-02 17:02:00,
2013-02-02 09:11:00,45.0,41.0,30.29,NW,323,2.0,-999.0,87,-99.99,,,-99.99,,2013-02-02 17:11:00,
2013-02-02 09:21:00,46.0,42.0,30.29,NW,323,3.0,-999.0,86,-99.99,,,-99.99,,2013-02-02 17:21:00,
2013-02-02 09:32:00,47.0,43.0,30.30,NW,323,3.0,-999.0,85,-99.99,,,-99.99,,2013-02-02 17:32:00,
2013-02-02 09:41:00,47.0,43.0,30.30,NW,323,3.0,-999.0,85,-99.99,,,-99.99,,2013-02-02 17:41:00,
2013-02-02 09:52:00,48.0,44.0,30.30,NW,324,4.0,-999.0,85,-99.99,,,-99.99,,2013-02-02 17:52:00,
2013-02-02 10:02:00,48.0,43.0,30.31,NW,317,5.0,-999.0,84,-99.99,,,-99.99,,2013-02-02 18:02:00,
2013-02-02 10:11:00,48.0,43.0,30.31,NW,317,5.0,-999.0,84,-99.99,,,-99.99,,2013-02-02 18:11:00,
2013-02-02 10:21:00,49.0,44.0,30.31,NW,325,4.0,-999.0,84,-99.99,,,-99.99,,2013-02-02 18:21:00,
2013-02-02 10:31:00,50.0,45.0,30.31,NW,325,3.0,-999.0,83,-99.99,,,-99.99,,2013-02-02 18:31:00,
2013-02-02 10:41:00,50.0,45.0,30.31,NW,325,3.0,-999.0,83,-99.99,,,-99.99,,2013-02-02 18:41:00,
2013-02-02 10:52:00,52.0,46.0,30.31,NW,319,4.0,-999.0,80,-99.99,,,-99.99,,2013-02-02 18:52:00,
2013-02-02 11:01:00,54.0,47.0,30.31,NNW,331,4.0,-999.0,77,-99.99,,,-99.99,,2013-02-02 19:01:00,
2013-02-02 11:11:00,54.0,47.0,30.31,NNW,331,4.0,-999.0,77,-99.99,,,-99.99,,2013-02-02 19:11:00,
2013-02-02 11:21:00,55.0,46.0,30.31,NNW,327,5.0,-999.0,72,-99.99,,,-99.99,,2013-02-02 19:21:00,
2013-02-02 11:32:00,56.0,47.0,30.31,NW,319,4.0,-999.0,71,-99.99,,,-99.99,,2013-02-02 19:32:00,
2013-02-02 11:41:00,56.0,47.0,30.31,NW,319,4.0,-999.0,71,-99.99,,,-99.99,,2013-02-02 19:41:00,
2013-02-02 11:51:00,56.0,46.0,30.30,NW,317,5.0,-999.0,68,-99.99,,,-99.99,,2013-02-02 19:51:00,
2013-02-02 12:01:00,56.0,46.0,30.30,NW,322,4.0,-999.0,68,-99.99,,,-99.99,,2013-02-02 20:01:00,
2013-02-02 12:11:00,56.0,46.0,30.30,NW,322,4.0,-999.0,68,-99.99,,,-99.99,,2013-02-02 20:11:00,
2013-02-02 12:21:00,56.0,45.0,30.29,NW,323,5.0,-999.0,66,-99.99,,,-99.99,,2013-02-02 20:21:00,
2013-02-02 12:32:00,57.0,45.0,30.28,NW,317,5.0,-999.0,64,-99.99,,,-99.99,,2013-02-02 20:32:00,
2013-02-02 12:41:00,57.0,45.0,30.28,NW,317,5.0,-999.0,64,-99.99,,,-99.99,,2013-02-02 20:41:00,
2013-02-02 12:52:00,57.0,45.0,30.28,NW,317,4.0,-999.0,64,-99.99,,,-99.99,,2013-02-02 20:52:00,
2013-02-02 13:01:00,57.0,45.0,30.27,NW,319,5.0,-999.0,63,-99.99,,,-99.99,,2013-02-02 21:01:00,
2013-02-02 13:11:00,57.0,45.0,30.27,NW,319,5.0,-999.0,63,-99.99,,,-99.99,,2013-02-02 21:11:00,
2013-02-02 13:21:00,58.0,46.0,30.27,NW,319,4.0,-999.0,64,-99.99,,,-99.99,,2013-02-02 21:21:00,
2013-02-02 13:32:00,60.0,47.0,30.26,NW,318,4.0,-999.0,61,-99.99,,,-99.99,,2013-02-02 21:32:00,
2013-02-02 13:42:00,60.0,47.0,30.26,NW,318,4.0,-999.0,61,-99.99,,,-99.99,,2013-02-02 21:42:00,
2013-02-02 13:51:00,60.0,47.0,30.25,NW,316,4.0,-999.0,61,-99.99,,,-99.99,,2013-02-02 21:51:00,
2013-02-02 14:02:00,61.0,46.0,30.24,NW,316,5.0,-999.0,57,-99.99,,,-99.99,,2013-02-02 22:02:00,
2013-02-02 14:11:00,61.0,46.0,30.24,NW,316,5.0,-999.0,57,-99.99,,,-99.99,,2013-02-02 22:11:00,
2013-02-02 14:21:00,62.0,46.0,30.24,NW,313,4.0,-999.0,56,-99.99,,,-99.99,,2013-02-02 22:21:00,
2013-02-02 14:32:00,62.0,46.0,30.23,NW,323,4.0,-999.0,55,-99.99,,,-99.99,,2013-02-02 22:32:00,
2013-02-02 14:41:00,62.0,46.0,30.23,NW,323,4.0,-999.0,55,-99.99,,,-99.99,,2013-02-02 22:41:00,
2013-02-02 14:51:00,62.0,46.0,30.23,NNW,336,3.0,-999.0,56,-99.99,,,-99.99,,2013-02-02 22:51:00,
2013-02-02 15:01:00,63.0,48.0,30.23,NNW,341,3.0,-999.0,57,-99.99,,,-99.99,,2013-02-02 23:01:00,
2013-02-02 15:11:00,63.0,48.0,30.23,NNW,341,3.0,-999.0,57,-99.99,,,-99.99,,2013-02-02 23:11:00,
2013-02-02 15:21:00,63.0,47.0,30.23,NNW,341,2.0,-999.0,55,-99.99,,,-99.99,,2013-02-02 23:21:00,
2013-02-02 15:32:00,63.0,47.0,30.23,NNW,341,2.0,-999.0,55,-99.99,,,-99.99,,2013-02-02 23:32:00,
2013-02-02 15:41:00,63.0,47.0,30.23,NNW,341,2.0,-999.0,55,-99.99,,,-99.99,,2013-02-02 23:41:00,
2013-02-02 15:52:00,62.0,46.0,30.23,NNW,341,2.0,-999.0,55,-99.99,,,-99.99,,2013-02-02 23:52:00,
2013-02-02 16:01:00,63.0,46.0,30.23,NNW,341,1.0,-999.0,54,-99.99,,,-99.99,,2013-02-03 00:01:00,
2013-02-02 16:11:00,63.0,46.0,30.23,NNW,341,1.0,-999.0,54,-99.99,,,-99.99,,2013-02-03 00:11:00,
2013-02-02 16:21:00,63.0,46.0,30.22,NNW,341,2.0,-999.0,54,-99.99,,,-99.99,,2013-02-03 00:21:00,
2013-02-02 16:31:00,63.0,46.0,30.22,NNW,340,2.0,-999.0,54,-99.99,,,-99.99,,2013-02-03 00:31:00,
2013-02-02 16:41:00,63.0,46.0,30.22,NNW,340,2.0,-999.0,54,-99.99,,,-99.99,,2013-02-03 00:41:00,
2013-02-02 16:51:00,63.0,46.0,30.22,NNW,340,1.0,-999.0,54,-99.99,,,-99.99,,2013-02-03 00:51:00,
2013-02-02 17:02:00,63.0,47.0,30.22,NNW,340,0.0,-999.0,55,-99.99,,,-99.99,,2013-02-03 01:02:00,
2013-02-02 17:11:00,63.0,47.0,30.22,NNW,340,0.0,-999.0,55,-99.99,,,-99.99,,2013-02-03 01:11:00,
2013-02-02 17:21:00,63.0,47.0,30.22,NNW,340,0.0,-999.0,55,-99.99,,,-99.99,,2013-02-03 01:21:00,
2013-02-02 17:32:00,62.0,47.0,30.22,NNW,340,0.0,-999.0,57,-99.99,,,-99.99,,2013-02-03 01:32:00,
2013-02-02 17:41:00,62.0,47.0,30.22,NNW,340,0.0,-999.0,57,-99.99,,,-99.99,,2013-02-03 01:41:00,
2013-02-02 17:51:00,62.0,47.0,30.22,NNW,340,0.0,-999.0,57,-99.99,,,-99.99,,2013-02-03 01:51:00,
2013-02-02 18:01:00,61.0,46.0,30.22,NNW,340,0.0,-999.0,58,-99.99,,,-99.99,,2013-02-03 02:01:00,
2013-02-02 18:11:00,61.0,46.0,30.22,NNW,340,0.0,-999.0,58,-99.99,,,-99.99,,2013-02-03 02:11:00,
2013-02-02 18:21:00,59.0,46.0,30.22,NNW,340,0.0,-999.0,61,-99.99,,,-99.99,,2013-02-03 02:21:00,
2013-02-02 18:31:00,58.0,45.0,30.22,NNW,340,0.0,-999.0,63,-99.99,,,-99.99,,2013-02-03 02:31:00,
2013-02-02 18:41:00,58.0,45.0,30.22,NNW,340,0.0,-999.0,63,-99.99,,,-99.99,,2013-02-03 02:41:00,
2013-02-02 18:52:00,58.0,45.0,30.22,NNW,340,0.0,-999.0,63,-99.99,,,-99.99,,2013-02-03 02:52:00,
2013-02-02 19:01:00,55.0,45.0,30.23,NNW,340,1.0,-999.0,68,-99.99,,,-99.99,,2013-02-03 03:01:00,
2013-02-02 19:11:00,55.0,45.0,30.23,NNW,340,1.0,-999.0,68,-99.99,,,-99.99,,2013-02-03 03:11:00,
2013-02-02 19:21:00,55.0,46.0,30.23,NNW,340,2.0,-999.0,72,-99.99,,,-99.99,,2013-02-03 03:21:00,
2013-02-02 19:31:00,54.0,46.0,30.23,NNW,340,2.0,-999.0,73,-99.99,,,-99.99,,2013-02-03 03:31:00,
2013-02-02 19:41:00,54.0,46.0,30.23,NNW,340,2.0,-999.0,73,-99.99,,,-99.99,,2013-02-03 03:41:00,
2013-02-02 19:51:00,54.0,46.0,30.23,NNW,340,0.0,-999.0,73,-99.99,,,-99.99,,2013-02-03 03:51:00,
2013-02-02 20:01:00,53.0,45.0,30.22,NNW,340,0.0,-999.0,74,-99.99,,,-99.99,,2013-02-03 04:01:00,
2013-02-02 20:11:00,53.0,45.0,30.22,NNW,340,0.0,-999.0,74,-99.99,,,-99.99,,2013-02-03 04:11:00,
2013-02-02 20:21:00,53.0,45.0,30.23,NNW,340,0.0,-999.0,75,-99.99,,,-99.99,,2013-02-03 04:21:00,
2013-02-02 20:31:00,53.0,45.0,30.23,NNW,340,1.0,-999.0,75,-99.99,,,-99.99,,2013-02-03 04:31:00,
2013-02-02 20:42:00,53.0,45.0,30.23,NNW,340,1.0,-999.0,75,-99.99,,,-99.99,,2013-02-03 04:42:00,
2013-02-02 20:51:00,53.0,45.0,30.23,NNW,340,0.0,-999.0,75,-99.99,,,-99.99,,2013-02-03 04:51:00,
2013-02-02 21:03:00,53.0,45.0,30.23,NNW,340,0.0,-999.0,75,-99.99,,,-99.99,,2013-02-03 05:03:00,
2013-02-02 21:11:00,53.0,45.0,30.23,NNW,340,0.0,-999.0,75,-99.99,,,-99.99,,2013-02-03 05:11:00,
2013-02-02 21:22:00,52.0,44.0,30.22,NNW,340,0.0,-999.0,74,-99.99,,,-99.99,,2013-02-03 05:22:00,
2013-02-02 21:31:00,52.0,45.0,30.22,NNW,340,0.0,-999.0,76,-99.99,,,-99.99,,2013-02-03 05:31:00,
2013-02-02 21:41:00,52.0,45.0,30.22,NNW,340,0.0,-999.0,76,-99.99,,,-99.99,,2013-02-03 05:41:00,
2013-02-02 21:52:00,51.0,44.0,30.22,NNW,340,0.0,-999.0,76,-99.99,,,-99.99,,2013-02-03 05:52:00,
2013-02-02 22:02:00,50.0,43.0,30.22,NNW,340,1.0,-999.0,76,-99.99,,,-99.99,,2013-02-03 06:02:00,
2013-02-02 22:11:00,50.0,43.0,30.22,NNW,340,1.0,-999.0,76,-99.99,,,-99.99,,2013-02-03 06:11:00,
2013-02-02 22:21:00,49.0,42.0,30.22,NNW,340,1.0,-999.0,78,-99.99,,,-99.99,,2013-02-03 06:21:00,
2013-02-02 22:31:00,48.0,43.0,30.22,NNW,340,0.0,-999.0,82,-99.99,,,-99.99,,2013-02-03 06:31:00,
2013-02-02 22:41:00,48.0,43.0,30.22,NNW,340,0.0,-999.0,82,-99.99,,,-99.99,,2013-02-03 06:41:00,
2013-02-02 22:52:00,47.0,42.0,30.22,NNW,340,0.0,-999.0,84,-99.99,,,-99.99,,2013-02-03 06:52:00,
2013-02-02 23:01:00,47.0,43.0,30.22,NNW,340,0.0,-999.0,85,-99.99,,,-99.99,,2013-02-03 07:01:00,
2013-02-02 23:11:00,47.0,43.0,30.22,NNW,340,0.0,-999.0,85,-99.99,,,-99.99,,2013-02-03 07:11:00,
2013-02-02 23:21:00,45.0,41.0,30.22,NNW,340,1.0,-999.0,86,-99.99,,,-99.99,,2013-02-03 07:21:00,
2013-02-02 23:31:00,45.0,42.0,30.22,NNW,340,0.0,-999.0,88,-99.99,,,-99.99,,2013-02-03 07:31:00,
2013-02-02 23:41:00,45.0,42.0,30.22,NNW,340,0.0,-999.0,88,-99.99,,,-99.99,,2013-02-03 07:41:00,
2013-02-02 23:52:00,45.0,42.0,30.23,NNW,340,0.0,-999.0,89,-99.99,,,-99.99,,2013-02-03 07:52:00,